This demonstration page uses our WeatherBlox Daily Observations layout. Learn more.

Left ArrowRight Arrow

Hourly Observations for April 13, 2016

Temp ( °F °C ) Dew Point ( °F °C ) Humidity (%) Winds ( mph kmh ) Pressure ( in mb ) Visibility ( mi km ) Precip ( " mm )
12:15 am 00:15 Clear 50 10 30 -1 47 47 S 10 17 30.06 1018 10 16 0.00 0.00
12:35 am 00:35 Clear 48 9 30 -1 50 50 S 12 19 30.06 1018 10 16 0.00 0.00
12:55 am 00:55 Clear 48 9 30 -1 50 50 S 10 17 30.06 1018 10 16 0.00 0.00
1:15 am 01:15 Clear 48 9 30 -1 50 50 SSW 12 19 30.06 1018 10 16 0.00 0.00
1:35 am 01:35 Clear 48 9 30 -1 50 50 SSW 12 19 30.06 1018 10 16 0.00 0.00
1:55 am 01:55 Clear 48 9 30 -1 50 50 SSW 12 19 30.06 1018 10 16 0.00 0.00
2:15 am 02:15 Clear 48 9 30 -1 50 50 SSW 14 22 30.06 1018 10 16 0.00 0.00
2:35 am 02:35 Clear 46 8 30 -1 53 53 SSW 10 17 30.09 1019 10 16 0.00 0.00
2:55 am 02:55 Clear 46 8 30 -1 53 53 SSW 6 9 30.09 1019 10 16 0.00 0.00
3:15 am 03:15 Clear 45 7 28 -2 53 53 SSW 3 6 30.09 1019 10 16 0.00 0.00
3:35 am 03:35 Clear 45 7 28 -2 53 53 S 6 9 30.06 1018 10 16 0.00 0.00
3:55 am 03:55 Clear 41 5 28 -2 61 61 S 7 11 30.06 1018 10 16 0.00 0.00
4:15 am 04:15 Clear 41 5 28 -2 61 61 S 9 15 30.06 1018 10 16 0.00 0.00
4:35 am 04:35 Clear 39 4 28 -2 65 65 SSW 10 17 30.09 1019 10 16 0.00 0.00
4:55 am 04:55 Clear 41 5 28 -2 61 61 SSW 8 13 30.06 1018 10 16 0.00 0.00
5:15 am 05:15 Clear 41 5 28 -2 61 61 SSW 8 13 30.06 1018 10 16 0.00 0.00
5:35 am 05:35 Clear 39 4 28 -2 65 65 S 9 15 30.09 1019 10 16 0.00 0.00
5:55 am 05:55 Clear 39 4 28 -2 65 65 S 10 17 30.09 1019 10 16 0.00 0.00
6:15 am 06:15 Clear 39 4 28 -2 65 65 SSW 8 13 30.09 1019 10 16 0.00 0.00
6:35 am 06:35 Clear 39 4 28 -2 65 65 S 8 13 30.09 1019 10 16 0.00 0.00
6:55 am 06:55 Clear 39 4 28 -2 65 65 SSW 10 17 30.09 1019 10 16 0.00 0.00
7:15 am 07:15 Sunny 43 6 28 -2 57 57 SSW 13 20 30.06 1018 10 16 0.00 0.00
7:35 am 07:35 Sunny 43 6 30 -1 61 61 SSW 9 15 30.06 1018 10 16 0.00 0.00
7:55 am 07:55 Sunny 45 7 30 -1 57 57 SSW 10 17 30.06 1018 10 16 0.00 0.00
8:15 am 08:15 Sunny 45 7 30 -1 57 57 SSW 8 13 30.09 1019 10 16 0.00 0.00
8:35 am 08:35 Sunny 46 8 32 0 57 57 SSW 13 20 30.09 1019 10 16 0.00 0.00
8:55 am 08:55 Sunny 48 9 34 1 58 58 SW 13 20 30.03 1017 10 16 0.00 0.00
9:15 am 09:15 Sunny 52 11 36 2 54 54 SSW 13 20 30.03 1017 10 16 0.00 0.00
9:35 am 09:35 Sunny 54 12 37 3 54 54 SW 12 19 30.03 1017 10 16 0.00 0.00
9:55 am 09:55 Sunny 55 13 37 3 51 51 SW 14 22 30.00 1016 10 16 0.00 0.00
10:15 am 10:15 Sunny 57 14 39 4 51 51 SSW 16 26 30.00 1016 10 16 0.00 0.00
10:35 am 10:35 Sunny 61 16 39 4 45 45 SSW 16 26 29.97 1015 10 16 0.00 0.00
10:55 am 10:55 Sunny 63 17 41 5 45 45 SSW 17 28 29.97 1015 10 16 0.00 0.00
11:15 am 11:15 Sunny 64 18 43 6 46 46 SW 17 28 29.97 1015 10 16 0.00 0.00
11:35 am 11:35 Sunny 66 19 43 6 43 43 SSW 17 28 29.97 1015 10 16 0.00 0.00
11:55 am 11:55 Sunny 66 19 43 6 43 43 SSW 15 24 29.97 1015 10 16 0.00 0.00
12:15 pm 12:15 Sunny 68 20 43 6 40 40 SSW 16 26 29.94 1014 10 16 0.00 0.00
12:35 pm 12:35 Sunny 70 21 45 7 40 40 SSW 14 22 29.94 1014 10 16 0.00 0.00
12:55 pm 12:55 Sunny 72 22 43 6 36 36 S 18 30 29.94 1014 10 16 0.00 0.00
1:15 pm 13:15 Sunny 72 22 43 6 36 36 SSW 20 31 29.94 1014 10 16 0.00 0.00
1:35 pm 13:35 Sunny 73 23 45 7 36 36 SSW 18 30 29.94 1014 10 16 0.00 0.00
1:55 pm 13:55 Sunny 73 23 43 6 33 33 S 17 28 29.91 1013 10 16 0.00 0.00
2:15 pm 14:15 Sunny 73 23 43 6 33 33 S 18 30 29.91 1013 10 16 0.00 0.00
2:35 pm 14:35 Sunny 73 23 43 6 33 33 S 17 28 29.91 1013 10 16 0.00 0.00
2:55 pm 14:55 Sunny 75 24 41 5 29 29 S 18 30 29.88 1012 10 16 0.00 0.00
3:15 pm 15:15 Sunny 75 24 39 4 27 27 SSW 16 26 29.88 1012 10 16 0.00 0.00
3:35 pm 15:35 Sunny 75 24 41 5 29 29 SSW 16 26 29.88 1012 10 16 0.00 0.00
3:55 pm 15:55 Sunny 75 24 41 5 29 29 S 17 28 29.85 1011 10 16 0.00 0.00
4:15 pm 16:15 Sunny 75 24 39 4 27 27 SW 16 26 29.85 1011 10 16 0.00 0.00
4:35 pm 16:35 Sunny 75 24 39 4 27 27 S 16 26 29.85 1011 10 16 0.00 0.00
4:55 pm 16:55 Sunny 75 24 39 4 27 27 S 17 28 29.85 1011 10 16 0.00 0.00
5:15 pm 17:15 Sunny 75 24 39 4 27 27 S 17 28 29.85 1011 10 16 0.00 0.00
5:35 pm 17:35 Sunny 75 24 39 4 27 27 SSW 18 30 29.85 1011 10 16 0.00 0.00
5:55 pm 17:55 Sunny 73 23 37 3 27 27 SSW 16 26 29.85 1011 10 16 0.00 0.00
6:15 pm 18:15 Sunny 73 23 37 3 27 27 S 16 26 29.85 1011 10 16 0.00 0.00
6:35 pm 18:35 Sunny 73 23 37 3 27 27 S 15 24 29.85 1011 10 16 0.00 0.00
6:55 pm 18:55 Sunny 72 22 37 3 29 29 SSW 17 28 29.88 1012 10 16 0.00 0.00
7:15 pm 19:15 Sunny 72 22 36 2 27 27 S 14 22 29.88 1012 10 16 0.00 0.00
7:35 pm 19:35 Sunny 70 21 37 3 31 31 S 14 22 29.88 1012 10 16 0.00 0.00
7:55 pm 19:55 Sunny 66 19 36 2 32 32 S 10 17 29.91 1013 10 16 0.00 0.00
8:15 pm 20:15 Clear 63 17 36 2 37 37 S 9 15 29.91 1013 10 16 0.00 0.00
8:35 pm 20:35 Clear 61 16 36 2 39 39 S 9 15 29.91 1013 10 16 0.00 0.00
8:55 pm 20:55 Clear 57 14 36 2 44 44 S 9 15 29.94 1014 10 16 0.00 0.00
9:15 pm 21:15 Clear 55 13 34 1 44 44 S 9 15 29.94 1014 10 16 0.00 0.00
9:35 pm 21:35 Clear 54 12 34 1 47 47 S 9 15 29.94 1014 10 16 0.00 0.00
9:55 pm 21:55 Clear 55 13 34 1 44 44 S 8 13 29.94 1014 10 16 0.00 0.00
10:15 pm 22:15 Clear 54 12 36 2 51 51 S 8 13 29.94 1014 10 16 0.00 0.00
10:35 pm 22:35 Clear 52 11 36 2 54 54 S 9 15 29.97 1015 10 16 0.00 0.00
10:55 pm 22:55 Clear 55 13 37 3 51 51 S 10 17 29.94 1014 10 16 0.00 0.00
11:15 pm 23:15 Clear 55 13 37 3 51 51 S 12 19 29.94 1014 10 16 0.00 0.00
11:35 pm 23:35 Clear 55 13 37 3 51 51 S 13 20 29.94 1014 10 16 0.00 0.00
11:55 pm 23:55 Clear 55 13 39 4 55 55 S 13 20 29.94 1014 10 16 0.00 0.00

Powered by AerisWeather